Regional Weather Roundup
Issued by NWS

Home | Current Version | Previous Version | Graphics & Text | Print | Product List | Glossary On
Versions: 1 2 3 4 5 6 7 8 9 10 11 12 13 14 15 16 17 18 19 20 21 22 23 24 25 26 27 28 29 30 31 32 33 34 35 36 37 38 39 40 41 42 43 44 45 46 47 48 49 50
000
ASUS45 KCYS 010210
RWRWY

WYOMING REGIONAL WEATHER ROUNDUP
NATIONAL WEATHER SERVICE CHEYENNE WY
800 PM MDT MON AUG 31 2015

NOTE:  "FAIR" INDICATES FEW OR NO CLOUDS BELOW 12,000 FEET
WITH NO SIGNIFICANT WEATHER AND/OR OBSTRUCTIONS TO VISIBILITY.

WYZ001-010300-
YELLOWSTONE NATIONAL PARK

CITY           SKY/WX    TMP DP  RH WIND       PRES   REMARKS
LK YELLOWSTONE   N/A     58  23  26 VRB3      30.22S
W YELLOWSTONE  NOT AVBL

$$
WYZ002>013-054>058-071-098>099-010300-
NORTHERN WYOMING

CITY           SKY/WX    TMP DP  RH WIND       PRES   REMARKS
JACKSON        CLEAR     66  23  19 SW10      30.11S
CODY           FAIR      73  28  19 W6        29.96S
GREYBULL       FAIR      81  24  12 N6        29.87R
WORLAND        FAIR      73  36  25 NE6       29.87S
SHERIDAN       FAIR      63  48  58 NW3       29.91R
BUFFALO        FAIR      72  43  35 NW12      29.98R
GILLETTE       FAIR      71  40  32 NE12      29.92R
HULETT         FAIR      64  54  68 E6        29.96S
NEWCASTLE      FAIR      70  50  49 SE10      29.96R

$$
WYZ014>020-022>026-101>103-010300-
CENTRAL WYOMING

CITY           SKY/WX    TMP DP  RH WIND       PRES   REMARKS
BIG PINEY      FAIR      63  28  26 NW7       30.16R
PINEDALE       FAIR      63  27  25 MISG      30.17R
DUBOIS         FAIR      61  23  23 W10       30.14R
LANDER         FAIR      73  25  16 SW9       29.99R
RIVERTON       FAIR      74  21  13 NW10      30.00R
CASPER         FAIR      75  35  23 S20       30.00R
DOUGLAS        FAIR      74  44  34 S15G29    30.00S

$$
WYZ021-027>030-104>119-010300-
SOUTHERN WYOMING

CITY           SKY/WX    TMP DP  RH WIND       PRES   REMARKS
EVANSTON       FAIR      69  29  22 W10       30.17S
KEMMERER       FAIR      64  25  22 W8        30.18S
FORT BRIDGER   CLEAR     72  30  21 W7G16     30.20R
ROCK SPRINGS   FAIR      67  40  37 SW10      30.15S
DIXON          FAIR      58  48  71 NE7       30.23F
RAWLINS        FAIR      64  39  39 S12       30.17S
SARATOGA       FAIR      55  46  71 SE16      30.23S
LARAMIE        FAIR      53  50  89 SE12      30.26F
CHEYENNE       LGT RAIN  63  47  55 W15       30.22R
TORRINGTON     CLOUDY    72  50  45 W9        30.05R
PINE BLUFFS    FAIR      68  50  52 E3        30.15R

$$


USA.gov is the U.S. government's official web portal to all federal, state and local government web resources and services.